• In Netherlands
  • List of Countries
  • For 7 days
  • Water Temperature
  • Satellite Maps
  • Weather Map
  • Weather Widgets
  • user-avatar
    Login

    Hourly Weather Chernomorec

    Today, 17 December, Sunday

    Time Temperature Precipitation Wind Pressure Humidity
    00:00 +14°C° 0.7 mm 5 mps 757 mmHg 81%
    01:00 +13°C° 0.7 mm 5 mps 757 mmHg 82%
    02:00 +13°C° 0 mm 3 mps 756 mmHg 84%
    03:00 +13°C° 1.1 mm 4 mps 756 mmHg 84%
    04:00 +12°C° 1.1 mm 5 mps 756 mmHg 85%
    05:00 +12°C° 1.1 mm 5 mps 756 mmHg 85%
    06:00 +12°C° 2 mm 5 mps 756 mmHg 86%
    07:00 +10°C° 2 mm 6 mps 756 mmHg 86%
    08:00 +9°C° 0 mm 7 mps 756 mmHg 84%
    09:00 +9°C° 2.4 mm 6 mps 756 mmHg 87%
    10:00 +9°C° 2.4 mm 5 mps 756 mmHg 89%
    11:00 +9°C° 2.4 mm 5 mps 756 mmHg 91%
    12:00 +8°C° 3.2 mm 5 mps 755 mmHg 91%
    13:00 +8°C° 3.2 mm 5 mps 755 mmHg 91%
    14:00 +8°C° 3.2 mm 6 mps 755 mmHg 91%
    15:00 +8°C° 1.9 mm 6 mps 755 mmHg 90%
    16:00 +7°C° 1.9 mm 6 mps 755 mmHg 89%
    17:00 +7°C° 1.9 mm 6 mps 755 mmHg 88%
    18:00 +7°C° 0.2 mm 6 mps 756 mmHg 88%
    19:00 +5°C° 0.2 mm 6 mps 756 mmHg 87%
    20:00 +5°C° 0.2 mm 6 mps 757 mmHg 87%
    21:00 +5°C° 0.1 mm 6 mps 758 mmHg 86%
    22:00 +4°C° 0.1 mm 6 mps 758 mmHg 85%
    23:00 +4°C° 0.1 mm 6 mps 759 mmHg 85%

    Tomorrow, 18 December, Monday

    Time Temperature Precipitation Wind Pressure Humidity
    00:00 +4°C° 0 mm 6 mps 760 mmHg 85%
    01:00 +3°C° 0 mm 6 mps 760 mmHg 85%
    02:00 +3°C° 0 mm 6 mps 761 mmHg 84%
    03:00 +2°C° 0 mm 5 mps 761 mmHg 85%
    04:00 +2°C° 0 mm 5 mps 762 mmHg 86%
    05:00 +2°C° 0 mm 5 mps 762 mmHg 87%
    06:00 +1°C° 0 mm 4 mps 762 mmHg 87%
    07:00 +1°C° 0 mm 4 mps 763 mmHg 88%
    08:00 +1°C° 0 mm 4 mps 763 mmHg 88%
    09:00 +3°C° 0 mm 4 mps 764 mmHg 83%
    10:00 +4°C° 0 mm 4 mps 764 mmHg 79%
    11:00 +5°C° 0 mm 4 mps 764 mmHg 74%
    12:00 +5°C° 0 mm 4 mps 764 mmHg 73%
    13:00 +5°C° 0 mm 4 mps 764 mmHg 72%
    14:00 +6°C° 0 mm 4 mps 763 mmHg 71%
    15:00 +5°C° 0 mm 4 mps 763 mmHg 74%
    16:00 +5°C° 0 mm 4 mps 763 mmHg 76%
    17:00 +4°C° 0 mm 4 mps 763 mmHg 79%
    18:00 +4°C° 0.1 mm 4 mps 763 mmHg 80%
    19:00 +3°C° 0.1 mm 5 mps 764 mmHg 81%
    20:00 +3°C° 0.1 mm 5 mps 764 mmHg 82%
    21:00 +3°C° 0.4 mm 5 mps 764 mmHg 82%
    22:00 +3°C° 0.4 mm 6 mps 764 mmHg 82%
    23:00 +3°C° 0.4 mm 6 mps 764 mmHg 82%

    Day after tomorrow, 19 December, Tuesday

    Time Temperature Precipitation Wind Pressure Humidity
    00:00 +2°C° 0.4 mm 6 mps 764 mmHg 82%
    01:00 +2°C° 0.4 mm 7 mps 764 mmHg 82%
    02:00 +2°C° 0.4 mm 7 mps 764 mmHg 83%
    03:00 +1°C° 0.6 mm 8 mps 764 mmHg 84%
    04:00 +1°C° 0.6 mm 8 mps 764 mmHg 86%
    05:00 0°C° 0.6 mm 8 mps 764 mmHg 87%
    06:00 0°C° 0.9 mm 8 mps 764 mmHg 88%
    07:00 0°C° 0.9 mm 9 mps 764 mmHg 88%
    08:00 0°C° 0.9 mm 9 mps 765 mmHg 89%
    09:00 0°C° 0.9 mm 9 mps 765 mmHg 90%
    10:00 -1°C° 0.9 mm 9 mps 766 mmHg 91%
    11:00 -1°C° 0.9 mm 9 mps 766 mmHg 92%
    12:00 -1°C° 0.3 mm 9 mps 766 mmHg 90%
    13:00 0°C° 0.3 mm 9 mps 766 mmHg 89%
    14:00 0°C° 0.3 mm 10 mps 766 mmHg 88%
    15:00 0°C° 0.6 mm 9 mps 766 mmHg 89%
    16:00 -1°C° 0.6 mm 9 mps 766 mmHg 90%
    17:00 -1°C° 0.6 mm 8 mps 766 mmHg 91%
    18:00 -2°C° 0.9 mm 8 mps 767 mmHg 92%
    19:00 -2°C° 0.9 mm 8 mps 767 mmHg 93%
    20:00 -4°C° 0.9 mm 8 mps 767 mmHg 93%
    21:00 -4°C° 0.7 mm 8 mps 768 mmHg 93%
    22:00 -4°C° 0.7 mm 8 mps 768 mmHg 93%
    23:00 -4°C° 0.7 mm 8 mps 768 mmHg 94%

    20 December, Wednesday

    Time Temperature Precipitation Wind Pressure Humidity
    00:00 -4°C° 1.1 mm 8 mps 768 mmHg 94%
    01:00 -4°C° 1.1 mm 9 mps 768 mmHg 94%
    02:00 -4°C° 1.1 mm 9 mps 769 mmHg 94%
    03:00 -4°C° 0.8 mm 8 mps 769 mmHg 94%
    04:00 -4°C° 0.8 mm 8 mps 769 mmHg 94%
    05:00 -5°C° 0.8 mm 8 mps 769 mmHg 93%
    06:00 -5°C° 0.3 mm 8 mps 770 mmHg 92%
    07:00 -4°C° 0.3 mm 7 mps 770 mmHg 92%
    08:00 -4°C° 0.3 mm 7 mps 771 mmHg 91%
    09:00 -4°C° 0.1 mm 7 mps 771 mmHg 89%
    10:00 -3°C° 0.1 mm 6 mps 771 mmHg 88%
    11:00 -3°C° 0.1 mm 6 mps 772 mmHg 86%
    12:00 -2°C° 0 mm 6 mps 772 mmHg 86%
    13:00 -2°C° 0 mm 6 mps 772 mmHg 86%
    14:00 -1°C° 0 mm 5 mps 772 mmHg 86%
    15:00 -2°C° 0 mm 5 mps 772 mmHg 88%
    16:00 -3°C° 0 mm 4 mps 772 mmHg 89%
    17:00 -4°C° 0 mm 4 mps 772 mmHg 91%
    18:00 -4°C° 0 mm 4 mps 773 mmHg 91%
    19:00 -5°C° 0 mm 3 mps 773 mmHg 91%
    20:00 -5°C° 0 mm 3 mps 773 mmHg 92%
    21:00 -5°C° 0 mm 3 mps 773 mmHg 91%
    22:00 -5°C° 0 mm 3 mps 773 mmHg 91%
    23:00 -6°C° 0 mm 3 mps 774 mmHg 91%

    21 December, Thursday

    Time Temperature Precipitation Wind Pressure Humidity
    00:00 -6°C° 0 mm 3 mps 774 mmHg 91%
    01:00 -6°C° 0 mm 3 mps 773 mmHg 90%
    02:00 -6°C° 0 mm 3 mps 773 mmHg 90%
    03:00 -6°C° 0 mm 3 mps 773 mmHg 89%
    04:00 -6°C° 0 mm 3 mps 773 mmHg 88%
    05:00 -6°C° 0 mm 2 mps 773 mmHg 88%
    06:00 -6°C° 0 mm 2 mps 773 mmHg 87%
    07:00 -6°C° 0 mm 2 mps 773 mmHg 86%
    08:00 -6°C° 0 mm 2 mps 773 mmHg 85%
    09:00 -5°C° 0 mm 3 mps 773 mmHg 83%
    10:00 -4°C° 0 mm 3 mps 773 mmHg 81%
    11:00 -1°C° 0 mm 3 mps 773 mmHg 80%
    12:00 -1°C° 0 mm 3 mps 772 mmHg 80%
    13:00 0°C° 0 mm 3 mps 772 mmHg 80%
    14:00 0°C° 0 mm 3 mps 771 mmHg 81%
    15:00 -1°C° 0 mm 3 mps 771 mmHg 83%
    16:00 -2°C° 0 mm 3 mps 771 mmHg 85%
    17:00 -4°C° 0 mm 2 mps 771 mmHg 87%
    18:00 -4°C° 0 mm 2 mps 771 mmHg 86%
    19:00 -5°C° 0 mm 2 mps 771 mmHg 85%
    20:00 -6°C° 0 mm 3 mps 771 mmHg 85%
    21:00 -6°C° 0 mm 3 mps 770 mmHg 84%
    22:00 -6°C° 0 mm 3 mps 770 mmHg 83%
    23:00 -6°C° 0 mm 3 mps 770 mmHg 82%

    22 December, Friday

    Time Temperature Precipitation Wind Pressure Humidity
    00:00 -6°C° 0 mm 3 mps 770 mmHg 82%
    01:00 -6°C° 0 mm 3 mps 769 mmHg 82%
    02:00 -6°C° 0 mm 3 mps 769 mmHg 81%
    03:00 -6°C° 0 mm 3 mps 768 mmHg 81%
    04:00 -6°C° 0 mm 3 mps 768 mmHg 81%
    05:00 -6°C° 0 mm 3 mps 767 mmHg 80%
    06:00 -6°C° 0 mm 3 mps 767 mmHg 80%
    07:00 -6°C° 0 mm 3 mps 767 mmHg 80%
    08:00 -7°C° 0 mm 4 mps 767 mmHg 80%
    09:00 -4°C° 0 mm 4 mps 767 mmHg 79%
    10:00 -3°C° 0 mm 4 mps 766 mmHg 79%
    11:00 -1°C° 0 mm 4 mps 766 mmHg 78%
    12:00 0°C° 0 mm 4 mps 766 mmHg 80%
    13:00 +1°C° 0 mm 3 mps 765 mmHg 81%
    14:00 +2°C° 0 mm 3 mps 765 mmHg 83%
    15:00 +1°C° 0 mm 3 mps 764 mmHg 83%
    16:00 0°C° 0 mm 3 mps 764 mmHg 84%
    17:00 -1°C° 0 mm 3 mps 764 mmHg 84%
    18:00 -2°C° 0 mm 3 mps 764 mmHg 83%
    19:00 -2°C° 0 mm 3 mps 764 mmHg 82%
    20:00 -2°C° 0 mm 2 mps 764 mmHg 81%
    21:00 -2°C° 0 mm 2 mps 764 mmHg 81%
    22:00 -2°C° 0 mm 2 mps 763 mmHg 81%
    23:00 -2°C° 0 mm 2 mps 763 mmHg 80%
    Show more